Probability
0 0 0 0 0 0 0 0 0 0 0 0 0 0 0 0 6 0 0 0 0 0 0 0 0 0 0 0 0 0 0 0 0 0 0 0 0 0 0 0 0 0 0
0 0 0 0 0 0 0 0 0 0 0 0 0 0 0 3 3 3 0 0 0 0 0 0 0 0 0 0 0 0 0 0 0 0 0 0 0 0 0 0 0 0 0
0 0 0 0 0 0 0 0 0 0 0 0 0 0 0 0 0 0 0 0 0 0 0 0 0 0 0 0 0 0 0 0 0 0 0 0 0 0 0 0 0 0 0
0 0 0 0 0 0 0 0 0 0 0 0 0 3 3 0 0 0 0 0 0 0 0 0 0 0 0 0 0 0 0 0 0 0 0 0 0 0 0 0 0 0 0
0 0 0 0 0 0 0 0 0 0 0 0 0 3 0 0 0 0 0 0 0 0 0 0 0 0 0 0 0 0 0 0 0 0 0 0 0 0 0 0 0 0 0
0 0 0 0 0 0 0 0 0 0 0 0 0 0 0 0 0 0 0 0 0 0 0 0 0 0 0 0 0 0 0 0 0 0 0 0 0 0 0 0 0 0 0
0 0 0 0 0 0 0 0 0 0 0 0 0 0 0 0 0 0 0 0 0 0 0 0 0 0 0 0 0 0 0 0 0 0 0 0 0 0 0 0 0 0 0
0 0 0 0 0 0 0 0 0 0 0 0 0 0 0 0 0 0 0 0 0 0 0 0 0 0 0 0 0 0 0 0 0 0 0 0 0 0 0 0 0 0 0
0 0 0 0 0 0 0 0 0 0 0 0 0 0 0 0 0 0 0 0 0 0 0 0 0 0 0 0 0 0 0 0 0 0 0 0 0 0 0 0 0 0 0
0 0 0 0 0 0 0 0 0 0 0 0 0 0 0 0 0 0 0 0 0 0 0 0 0 0 0 0 0 0 0 0 0 0 0 0 0 0 0 0 0 0 0
0 0 0 0 0 0 0 0 0 0 0 0 0 0 0 0 0 0 0 0 0 0 0 0 0 0 0 0 0 0 0 0 0 0 0 0 0 0 0 0 0 0 0
0 0 0 0 0 0 0 0 0 0 0 0 0 0 0 0 0 0 0 0 0 0 0 0 0 0 0 0 0 0 0 0 0 0 0 0 0 0 0 0 0 0 0
0 0 0 0 0 0 0 0 0 0 0 0 0 0 0 0 0 0 0 0 0 0 0 0 0 0 0 0 0 0 0 0 0 0 0 0 0 0 0 0 0 0 0
0 0 0 0 0 0 0 0 0 0 0 0 0 0 0 0 0 0 0 0 0 0 0 0 0 0 0 0 0 0 0 0 0 0 0 0 0 0 0 0 0 0 0
0 0 0 0 0 0 0 0 0 0 0 0 0 0 0 0 0 0 0 0 0 0 0 0 0 0 0 0 0 0 0 0 0 0 0 0 0 0 0 0 0 0 0
0 0 0 0 0 0 0 0 0 0 0 0 0 0 0 0 0 0 0 0 0 0 0 0 0 0 0 0 0 0 0 0 0 0 0 0 0 0 0 0 0 0 0
0 0 0 0 0 0 0 0 0 0 0 0 0 0 0 0 0 0 0 0 0 0 0 0 0 0 0 0 0 0 0 0 0 0 0 0 0 0 0 0 0 0 0
0 0 0 0 0 0 0 0 0 0 0 0 0 0 0 0 0 0 0 0 0 0 0 0 0 0 0 0 0 0 0 0 0 0 0 0 0 0 0 0 0 0 0
0 0 0 0 0 0 0 0 0 0 0 0 0 0 0 0 0 0 0 0 0 0 0 0 0 0 0 0 0 0 0 0 0 0 0 0 0 0 0 0 0 0 0
0 0 0 0 0 0 0 0 0 0 0 0 0 0 0 0 0 0 0 0 0 0 0 0 0 0 0 0 0 0 0 0 0 0 0 0 0 0 0 0 0 0 0
0 0 0 0 0 0 0 0 0 0 0 0 0 0 0 0 0 0 0 0 0 0 0 0 0 0 0 0 0 0 0 0 0 0 0 0 0 0 0 0 0 0 0
0 0 0 0 0 0 0 0 0 0 0 0 0 0 0 0 0 0 0 0 0 0 0 0 0 0 0 0 0 0 0 0 0 0 0 0 0 0 0 0 0 0 0
0 0 0 0 0 0 0 0 0 0 0 0 0 0 0 0 0 0 0 0 0 0 0 0 0 0 0 0 0 0 0 0 0 0 0 0 0 0 0 0 0 0 0
0 0 0 0 0 0 0 0 0 0 0 0 0 0 0 0 0 0 0 0 0 0 0 0 0 0 0 0 0 0 0 0 0 0 0 0 0 0 0 0 0 0 0
0 0 0 0 0 0 0 0 0 0 0 0 0 0 0 0 0 0 0 0 0 0 0 0 0 0 0 0 0 0 0 0 0 0 0 0 0 0 0 0 0 0 0
0 0 0 0 0 0 0 0 0 0 0 0 0 0 0 0 0 0 0 0 0 0 0 0 0 0 0 0 0 0 0 0 0 0 0 0 0 0 0 0 0 0 0
Height
5742 5743 5744 5745 5746 5746 5746 5746 5746 5745 5744 5743 5742 5741 5740 5738 5736 5734 5732 5729 5727 5725 5723 5721 5719 5717 5715 5713 5711 5710 5710 5709 5709 5709 5710 5710 5710 5710 5711 5711 5712 5712 5712
5735 5736 5737 5738 5738 5738 5738 5738 5737 5736 5735 5734 5732 5731 5730 5729 5727 5724 5722 5719 5717 5715 5713 5711 5708 5706 5704 5701 5699 5697 5696 5696 5695 5695 5695 5697 5699 5698 5698 5698 5698 5698 5698
5728 5729 5730 5730 5730 5731 5730 5730 5729 5728 5726 5725 5723 5722 5721 5719 5717 5715 5712 5710 5707 5704 5702 5700 5698 5695 5693 5690 5688 5685 5683 5683 5682 5682 5682 5682 5684 5686 5687 5686 5685 5685 5685
5720 5721 5722 5723 5723 5723 5722 5721 5720 5719 5717 5716 5715 5713 5712 5710 5708 5706 5703 5700 5697 5694 5692 5690 5687 5685 5682 5679 5676 5672 5670 5670 5670 5669 5669 5670 5671 5672 5674 5674 5673 5672 5671
5713 5714 5714 5715 5715 5714 5714 5712 5711 5710 5709 5707 5706 5704 5703 5701 5699 5696 5693 5690 5687 5684 5682 5680 5677 5674 5671 5667 5664 5660 5658 5657 5657 5657 5657 5658 5658 5658 5659 5661 5662 5661 5660
5705 5706 5706 5706 5706 5706 5705 5704 5703 5702 5701 5699 5698 5696 5694 5692 5690 5687 5684 5680 5678 5675 5672 5669 5667 5663 5660 5656 5653 5649 5647 5646 5646 5646 5645 5646 5646 5647 5647 5648 5648 5649 5648
5697 5697 5698 5698 5698 5698 5697 5696 5694 5693 5692 5690 5688 5686 5684 5682 5679 5677 5674 5671 5668 5665 5663 5660 5657 5653 5650 5646 5643 5639 5637 5636 5635 5635 5634 5635 5635 5635 5635 5635 5636 5637 5637
5688 5689 5689 5690 5690 5689 5688 5687 5686 5685 5683 5681 5679 5677 5675 5672 5670 5667 5664 5661 5658 5656 5653 5650 5647 5643 5640 5636 5633 5630 5628 5626 5625 5624 5624 5624 5624 5624 5624 5624 5625 5625 5627
5680 5680 5681 5681 5681 5681 5680 5679 5677 5676 5674 5672 5670 5668 5665 5663 5660 5657 5655 5652 5648 5646 5643 5640 5637 5634 5630 5627 5624 5621 5619 5617 5616 5615 5614 5614 5614 5614 5614 5614 5614 5614 5615
5672 5672 5672 5672 5672 5672 5671 5669 5668 5666 5665 5663 5661 5659 5656 5653 5650 5647 5645 5642 5639 5636 5634 5631 5628 5625 5621 5618 5615 5612 5610 5608 5607 5606 5605 5605 5605 5605 5605 5605 5604 5604 5605
5663 5664 5664 5663 5663 5662 5662 5660 5659 5657 5656 5653 5651 5649 5646 5643 5640 5637 5635 5632 5630 5627 5625 5622 5619 5616 5613 5610 5607 5604 5602 5600 5599 5598 5597 5597 5596 5595 5596 5596 5596 5596 5596
5655 5655 5655 5655 5654 5654 5653 5651 5650 5648 5646 5644 5641 5639 5636 5633 5630 5627 5625 5623 5620 5618 5616 5613 5611 5608 5606 5603 5600 5597 5595 5593 5592 5591 5590 5589 5587 5587 5587 5587 5587 5587 5587
5647 5647 5647 5646 5646 5645 5644 5642 5640 5638 5636 5634 5632 5629 5626 5623 5620 5617 5615 5613 5611 5610 5608 5606 5603 5601 5599 5596 5593 5590 5589 5587 5585 5584 5583 5581 5580 5579 5579 5579 5579 5579 5578
5639 5639 5639 5638 5638 5636 5635 5633 5632 5629 5627 5625 5622 5620 5617 5614 5611 5608 5605 5604 5603 5602 5601 5599 5597 5594 5592 5589 5586 5584 5582 5581 5579 5577 5575 5574 5572 5572 5572 5572 5572 5571 5570
5631 5631 5631 5631 5629 5628 5627 5625 5623 5621 5618 5616 5613 5611 5607 5604 5601 5599 5598 5597 5596 5595 5594 5592 5590 5588 5585 5583 5580 5578 5576 5575 5573 5571 5569 5568 5566 5566 5565 5565 5565 5564 5563
5623 5623 5623 5623 5622 5620 5619 5617 5615 5613 5610 5608 5605 5602 5599 5596 5594 5592 5591 5591 5590 5589 5588 5586 5585 5583 5580 5578 5575 5573 5571 5569 5567 5565 5563 5562 5560 5560 5559 5559 5559 5558 5556
5614 5615 5615 5615 5614 5613 5611 5609 5607 5605 5602 5600 5597 5594 5591 5589 5587 5586 5585 5585 5584 5583 5582 5581 5579 5577 5575 5573 5570 5568 5565 5563 5561 5559 5557 5556 5555 5554 5554 5554 5553 5552 5550
5607 5607 5607 5607 5606 5605 5603 5602 5599 5597 5595 5593 5590 5587 5585 5583 5581 5580 5580 5579 5578 5577 5576 5575 5574 5572 5570 5567 5565 5562 5560 5558 5555 5553 5552 5551 5550 5549 5548 5548 5547 5546 5544
5598 5599 5599 5599 5599 5598 5596 5594 5592 5591 5588 5586 5584 5581 5579 5577 5576 5575 5574 5573 5572 5571 5570 5569 5568 5566 5564 5562 5560 5557 5555 5553 5551 5549 5547 5546 5545 5544 5543 5542 5541 5540 5538
5590 5591 5592 5591 5591 5590 5589 5587 5586 5584 5582 5580 5578 5576 5574 5572 5571 5570 5568 5567 5566 5566 5565 5564 5562 5561 5559 5557 5555 5552 5550 5548 5546 5544 5542 5541 5540 5539 5537 5536 5535 5534 5532
5582 5583 5584 5584 5584 5583 5582 5580 5579 5578 5576 5574 5572 5570 5568 5567 5566 5564 5563 5562 5561 5560 5559 5558 5557 5555 5553 5551 5549 5547 5545 5543 5541 5539 5538 5536 5535 5534 5532 5531 5529 5527 5525
5574 5575 5576 5576 5576 5576 5575 5574 5573 5572 5570 5568 5566 5565 5563 5562 5561 5559 5558 5556 5555 5554 5553 5552 5551 5549 5547 5546 5544 5542 5540 5538 5536 5535 5533 5531 5530 5528 5527 5525 5523 5521 5518
5566 5567 5568 5569 5569 5569 5569 5568 5567 5565 5564 5562 5561 5560 5558 5556 5555 5554 5553 5552 5550 5549 5548 5547 5546 5544 5542 5540 5539 5537 5535 5533 5531 5529 5528 5526 5524 5523 5521 5519 5516 5514 5512
5558 5559 5560 5561 5561 5562 5562 5561 5560 5560 5559 5557 5556 5555 5553 5552 5550 5549 5548 5547 5546 5545 5544 5542 5541 5539 5537 5535 5533 5532 5530 5528 5526 5524 5522 5520 5518 5516 5515 5513 5511 5508 5506
5550 5552 5553 5554 5554 5554 5555 5554 5554 5554 5553 5552 5551 5549 5548 5547 5546 5544 5543 5542 5541 5540 5539 5537 5536 5534 5532 5530 5528 5526 5524 5522 5520 5518 5517 5515 5513 5511 5509 5507 5505 5502 5501
5542 5544 5545 5546 5547 5547 5548 5548 5548 5548 5547 5546 5545 5544 5543 5542 5541 5539 5538 5536 5536 5534 5533 5532 5530 5528 5527 5524 5522 5520 5518 5516 5514 5512 5510 5508 5506 5504 5502 5500 5499 5497 5495
Wind_Speed
29 29 29 30 30 30 30 30 30 31 32 33 34 34 35 36 36 36 37 38 38 38 39 40 41 42 43 44 45 46 47 48 49 49 49 48 48 48 48 49 49 50 51
29 29 30 29 29 29 29 30 30 31 32 33 33 34 34 35 35 36 37 38 38 39 39 40 41 42 43 45 45 45 46 47 48 49 49 48 48 47 47 48 49 50 51
29 29 29 29 29 29 29 30 30 30 31 31 32 33 33 34 35 36 37 37 38 38 38 39 40 41 42 42 43 45 46 47 47 47 48 48 47 46 46 46 48 50 51
29 29 29 29 29 29 29 30 30 30 30 30 31 32 33 33 34 35 36 37 37 37 38 38 39 40 41 41 42 43 44 45 45 45 46 46 46 46 46 46 47 48 49
29 29 29 29 29 29 29 30 30 29 30 30 31 32 33 33 34 35 35 36 36 37 37 38 39 40 40 41 41 41 41 42 43 44 44 45 46 46 46 46 46 46 47
29 29 30 30 30 30 30 30 30 30 30 31 32 32 32 33 34 35 35 35 35 36 37 38 39 39 39 39 39 40 40 41 42 42 42 43 44 44 45 45 45 45 45
29 29 29 30 30 30 30 30 30 30 31 31 31 32 32 33 34 34 34 35 36 36 37 38 38 38 38 38 39 39 39 40 41 41 41 42 42 43 43 44 44 43 44
29 29 29 30 29 29 29 30 30 30 31 31 32 32 33 33 33 34 34 35 36 37 37 37 37 37 37 37 37 37 38 38 39 39 38 39 39 40 41 41 42 42 43
29 29 30 30 30 30 29 29 30 30 31 31 32 33 33 33 34 34 35 35 35 36 36 36 36 36 36 35 35 35 36 36 36 36 36 37 36 37 38 40 40 40 40
29 29 29 30 30 30 30 30 31 31 31 32 33 33 34 34 34 35 35 35 34 35 35 35 35 35 33 32 33 33 34 34 34 34 34 35 36 37 37 38 37 37 38
28 28 29 29 29 30 30 31 31 32 32 33 33 34 35 35 35 36 35 35 35 35 35 34 33 32 31 32 32 33 33 33 32 32 33 34 35 35 36 36 35 36 37
27 28 28 28 29 29 30 31 31 32 33 33 33 34 35 35 35 35 35 34 34 33 32 32 32 31 31 32 32 32 31 31 31 31 30 32 34 34 34 34 34 34 35
27 27 27 27 28 28 29 30 31 32 32 32 33 34 34 34 34 34 33 32 31 31 30 30 30 30 31 31 31 30 29 29 29 30 30 31 31 32 31 31 32 33 33
26 27 26 26 27 27 28 28 29 30 31 32 33 33 34 34 33 32 31 30 29 29 28 28 28 29 30 30 30 29 29 29 28 29 29 30 29 29 30 30 31 30 31
27 26 26 26 26 27 27 27 28 29 30 30 31 31 32 31 30 29 28 28 28 27 27 27 27 28 28 28 27 27 28 27 27 28 28 28 27 27 28 27 27 27 28
27 26 26 26 27 27 27 27 27 28 28 29 30 30 30 28 27 27 27 27 26 26 26 26 26 26 25 25 26 26 26 26 27 28 27 26 26 26 25 26 26 26 27
27 26 26 26 27 26 26 27 27 27 28 28 28 28 27 26 26 26 26 26 26 26 26 26 25 25 25 25 25 25 24 24 26 26 25 24 24 23 24 25 25 26 26
27 27 26 27 27 26 26 27 27 27 27 27 27 26 25 25 25 25 26 25 25 26 26 25 25 25 25 25 25 24 24 24 24 24 24 23 23 23 23 24 24 24 25
28 28 27 27 27 27 26 26 26 26 26 26 25 24 24 24 25 25 25 25 25 25 25 25 25 25 25 24 24 24 24 24 23 23 22 22 22 22 23 23 24 25 25
28 27 27 26 26 27 26 26 25 25 25 24 24 24 24 23 24 24 24 24 24 24 24 24 24 25 24 23 23 24 24 23 22 22 22 21 22 22 23 24 25 26 26
27 27 27 26 26 26 26 25 25 24 24 24 24 24 24 23 23 23 23 23 23 24 23 24 24 24 24 24 24 24 23 22 21 21 21 21 22 22 23 25 25 26 26
26 27 26 26 25 25 25 24 24 24 24 24 23 23 22 22 21 21 22 22 22 22 23 24 23 23 23 22 22 22 22 22 22 22 21 21 22 22 23 24 25 26 25
25 25 25 25 25 24 23 23 22 22 22 21 21 21 21 20 20 21 21 22 22 22 22 22 22 22 22 21 22 21 22 22 23 22 22 22 23 23 23 24 25 24 24
24 25 25 25 25 24 23 22 22 22 22 21 21 21 21 21 20 21 21 20 21 21 22 22 22 22 22 22 23 23 23 23 23 23 23 23 23 23 24 24 24 23 23
25 24 24 24 24 23 23 22 21 21 21 21 20 20 20 20 20 21 21 20 21 21 22 23 23 23 23 24 24 24 24 24 24 24 23 24 23 24 24 23 23 22 22
23 23 23 23 23 22 22 21 21 20 20 20 19 19 20 20 20 21 21 21 22 21 22 23 23 24 24 25 25 25 24 24 24 24 24 24 24 24 24 23 22 22 22
Wind_Direction
250 252 254 256 259 261 264 266 267 269 271 272 273 273 274 276 279 281 281 280 279 279 278 278 278 277 277 277 275 272 269 268 267 267 266 266 266 266 265 265 265 264 264
250 253 256 258 261 263 265 267 269 271 272 273 274 274 275 277 279 282 281 280 280 280 279 279 279 280 279 277 276 273 271 269 268 267 266 266 265 266 267 266 265 265 265
251 253 256 259 261 263 266 268 270 272 273 274 274 275 276 278 280 282 282 281 281 280 281 280 280 280 281 280 278 276 274 271 269 268 268 267 266 266 267 267 266 266 266
251 253 256 259 261 264 267 269 271 272 274 275 276 277 277 279 281 282 283 283 282 281 282 282 282 283 282 282 282 279 275 271 270 269 268 267 267 267 267 267 269 268 266
252 254 257 259 261 264 268 270 271 273 275 277 278 279 279 280 282 283 284 283 283 282 282 283 283 285 285 285 283 280 276 273 271 270 268 267 268 268 269 269 269 269 267
253 256 258 260 263 266 269 270 272 274 276 277 278 280 280 281 282 283 284 284 284 284 284 284 285 287 287 286 283 281 279 276 272 270 269 268 269 269 270 270 270 268 268
254 256 258 260 263 266 269 271 272 274 276 278 278 280 281 282 283 284 285 285 285 284 284 285 287 288 288 286 284 282 280 277 273 271 270 269 269 269 270 270 270 269 267
255 257 259 261 263 265 267 269 272 274 276 277 279 281 282 283 283 284 286 287 287 286 286 287 288 288 287 286 285 284 281 277 274 271 271 270 270 271 271 271 270 270 267
256 257 259 262 263 265 267 269 272 275 277 279 280 282 282 283 284 284 286 288 289 288 287 288 288 288 288 287 286 285 281 278 275 272 271 271 272 272 271 269 271 272 269
256 258 260 262 264 265 267 270 272 274 277 279 280 282 283 284 284 284 286 287 288 288 287 288 289 289 288 288 287 286 283 281 278 276 273 273 273 273 272 272 272 272 272
256 259 261 263 264 266 269 270 273 275 278 280 281 283 284 285 284 284 285 285 286 287 288 288 288 288 288 288 288 286 283 280 278 278 277 276 275 274 272 272 272 274 274
257 259 260 262 264 267 270 272 274 276 279 281 282 284 284 285 285 284 284 284 284 285 288 288 287 287 288 289 288 287 285 282 277 279 281 280 278 275 272 272 273 276 275
257 259 260 262 264 267 270 272 275 277 279 280 282 283 284 286 285 284 282 283 283 284 287 288 288 288 289 290 290 288 284 281 281 282 282 282 278 275 272 273 275 277 275
256 259 260 263 266 268 270 272 276 278 280 281 282 284 285 286 285 284 281 281 282 285 288 290 290 291 289 289 290 287 286 286 286 286 285 284 278 275 274 276 277 277 277
256 258 261 263 266 268 271 275 278 281 283 284 285 287 288 287 285 283 280 281 283 285 287 289 290 292 292 291 291 289 288 287 289 287 285 285 281 277 276 277 278 279 281
255 258 261 264 267 269 273 276 279 281 284 285 286 288 289 287 283 281 280 280 283 284 285 287 289 291 293 294 292 290 289 288 289 289 287 286 281 278 276 278 280 282 285
253 256 260 263 266 271 274 276 278 280 283 285 287 288 288 286 282 279 280 281 283 283 284 285 288 290 293 293 292 291 293 292 291 289 286 284 281 278 279 280 282 285 286
253 257 260 262 266 269 273 277 279 282 284 286 287 287 288 286 282 279 279 281 282 282 283 282 286 289 291 293 293 292 295 295 293 292 288 285 282 279 280 282 284 286 288
254 256 259 262 265 268 273 275 277 281 285 286 286 286 288 287 284 282 281 282 283 283 282 281 284 287 289 292 294 294 295 294 293 292 289 285 281 281 283 284 286 287 287
254 255 258 261 264 268 272 275 277 279 282 284 285 285 287 287 286 285 283 283 283 283 282 281 283 286 288 292 294 294 294 294 293 291 289 285 283 284 287 287 287 287 287
252 255 258 261 264 268 271 274 277 277 279 282 284 284 285 285 284 286 286 283 283 283 283 283 283 285 286 288 290 292 294 295 292 290 289 286 285 286 288 290 290 289 289
254 255 258 260 264 267 270 274 276 276 278 281 283 285 284 283 283 285 285 285 285 285 283 284 285 287 287 287 289 291 293 292 291 290 289 287 287 289 291 292 291 291 291
254 256 257 259 261 264 269 273 274 275 277 279 283 285 285 284 284 287 287 285 284 284 284 284 286 288 287 286 287 288 290 291 291 289 289 288 289 289 290 292 292 292 291
253 256 256 259 260 263 265 268 272 275 277 280 282 285 286 285 284 287 289 287 284 283 284 285 286 287 286 285 285 286 288 289 289 288 289 290 290 289 290 291 292 293 292
253 255 256 258 260 260 261 265 270 275 279 280 281 284 285 284 284 285 286 285 284 284 283 285 284 284 284 285 286 288 289 290 289 289 290 290 291 290 290 290 291 291 292
253 254 255 256 258 258 259 263 268 273 277 278 280 281 283 285 284 284 286 288 286 284 284 285 285 286 286 286 288 290 290 290 289 290 293 293 292 291 290 289 289 289 290